Location: Newark
(49.8969°N, 3.3422°E)
Time: 18:20:29
(UTC+00:00)

Vanguard 2 Rocket - Pass Details

Date: 24 January 2020
Orbit: 554 x 3326 km, 32.9° (Epoch: 16 February)

Event Time Altitude Azimuth Distance (km) Brightness Sun altitude
Rises 06:21:43 0° 227° (SW) 3,100 9.3 -11.1°
Reaches altitude 10° 06:24:32 10° 207° (SSW) 2,436 9.0 -10.6°
Maximum altitude 06:28:17 18° 165° (SSE) 2,311 9.4 -10.0°
Drops below altitude 10° 06:33:16 10° 127° (SE) 3,402 11.2 -9.3°
Sets 06:38:18 0° 111° (ESE) 4,966 13.2 -8.5°
